Flag for U.S.A. Weather past 2 weeks in Peoria, Illinois, U.S.A.

Now
51 °F

Clear.


Feels Like: 51 °F
Forecast: 49 / 74 °F
Wind: 3 mph from North

Location: Greater Peoria Regional Airport

Current Time: May 22, 2015 at 6:36:51 AM

Latest Report: May 22, 2015 at 5:54 AM


Visibility: 10 mi

Pressure: 30.15 "Hg

Humidity: 77%

Dew point: 44 °F

Location of PeoriaLocation

Historic Weather in Peoria — Graph

°F

Peoria temperature yesterday

Maximum temperature yesterday: 70 °F (at 4:54 PM)
Minimum temperature yesterday: 46 °F (at 2:54 AM)
Average temperature yesterday: 57 °F

Past Weeks' High & Low Weather Summary

 TemperatureHumidityPressure
High86 °F (May 7, 2:54 PM)94% (May 8, 4:54 AM)30.46 "Hg (May 8, 4:54 AM)
Low43 °F (May 13, 5:54 AM)30% (May 21, 4:54 PM)29.82 "Hg (May 17, 10:54 AM)
Average64 °F68%30.06 "Hg
* Reported May 7 4:54 AM — May 22 4:54 AM, Peoria, Weather by CustomWeather, © 2015

Note: Actual official high and low records may vary slightly from our data, if they occured in-between our weather recording intervals... More about our weather records

Advertising

Peoria weather history for previous 24 hours

 ConditionsComfort  
Time TempWeatherWind HumidityBarometerVisibility
4:54 AM
Fri, May 22
54 °FClear.5 mph72%30.12 "Hg10 mi
3:54 AM56 °FClear.6 mph70%30.11 "Hg10 mi
2:54 AM55 °FClear.5 mph72%30.09 "Hg10 mi
1:54 AM56 °FClear.6 mph70%30.08 "Hg10 mi
12:54 AM57 °FClear.9 mph67%30.08 "Hg10 mi
11:54 PM
Thu, May 21
57 °FClear.8 mph67%30.09 "Hg10 mi
10:54 PM57 °FClear.8 mph67%30.10 "Hg10 mi
9:54 PM58 °FClear.7 mph62%30.10 "Hg10 mi
8:54 PM59 °FSunny.7 mph58%30.09 "Hg10 mi
7:54 PM66 °FSunny.8 mph42%30.08 "Hg10 mi
6:54 PM69 °FSunny.10 mph35%30.08 "Hg10 mi
5:54 PM70 °FSunny.10 mph32%30.09 "Hg10 mi
4:54 PM70 °FSunny.10 mph30%30.10 "Hg10 mi
3:54 PM69 °FPassing clouds.13 mph32%30.11 "Hg10 mi
2:54 PM68 °FSunny.10 mph33%30.12 "Hg10 mi
1:54 PM65 °FPassing clouds.8 mph39%30.13 "Hg10 mi
12:54 PM64 °FSunny.12 mph40%30.14 "Hg10 mi
11:54 AM61 °FPassing clouds.7 mph48%30.15 "Hg10 mi
10:54 AM59 °FSunny.7 mph54%30.17 "Hg10 mi
9:54 AM56 °FSunny.7 mph58%30.18 "Hg10 mi
8:54 AM52 °FSunny.8 mph64%30.19 "Hg10 mi
7:54 AM50 °FOvercast.7 mph68%30.20 "Hg10 mi
6:54 AM47 °FOvercast.6 mph77%30.18 "Hg10 mi
Weather by CustomWeather, © 2015

See weather overviewHow to use our weather pages